Volver al catálogo

STARLINK-31511

ActivoComunicacionesVLEO
NORAD 59462·PAYLOAD·🇺🇸 United States

Lanzado Apr 10, 2024 desde Cape Canaveral Space Force Station

Loading…

Próximos Pases (próximas 24 horas)

TLE

ActualizadoSource: CelesTrak SupGP

Época: Sep 15, 2026, 02:11 UTC

1 59462C 24068H   26258.09145833 -.00021798  00000+0 -78952-3 0  2582
2 59462  43.0044  45.0405 0001710 272.8819 221.4686 15.27589779    17

Sigue STARLINK-31511 en tiempo real con AllMySat

Download on the App Store